Location: Pine Mountain Observatory
(43.7910°N, 120.9377°W)
Time: 03:36:11
(UTC-07:00)

Explorer 11/Cluster Stage 4 - Pass Details

Date: 01 June 2019
Orbit: 467 x 1260 km, 28.8° (Epoch: 15 June)

Event Time Altitude Azimuth Distance (km) Brightness Sun altitude
Rises 23:42:50 0° 223° (SW) 4,190 10.0 -21.6°
Enters shadow 23:43:16 - 222° (SW) 4,073 10.0 -21.6°
Reaches altitude 10° 23:46:45 10° 208° (SSW) 3,194 - -21.8°
Maximum altitude 23:52:05 19° 166° (SSE) 2,461 - -22.1°
Drops below altitude 10° 23:57:04 10° 124° (SE) 2,954 - -22.4°
Sets 00:00:30 0° 108° (ESE) 3,780 - -22.6°
